Home > Weather > Rustenburg > Past weeks

Flag for South Africa Weather for the Past 2 Weeks in Rustenburg, South Africa

Now
55 °F

Clear.


Feels Like: 55 °F
Forecast: 45 / 73 °F
Wind: No wind

Location: Lanseria Civ / Mil

Current Time: Apr 30, 2016 at 6:25:18 AM

Latest Report: Apr 30, 2016 at 5:00 AM


Visibility: 10 mi

Pressure: 30.01 "Hg (26.11 "Hg at 1166m altitude)

Humidity: 77%

Dew Point: 48 °F

Location of RustenburgLocation

Historic Weather in Rustenburg — Graph

°F

Rustenburg Temperature Yesterday

Maximum temperature yesterday: 81 °F (at 1:00 PM)
Minimum temperature yesterday: 50 °F (at 6:00 AM)
Average temperature yesterday: 68 °F

High & Low Weather Summary for the Past Weeks

 TemperatureHumidityPressure
High84 °F (Apr 17, 3:00 PM)100% (Apr 21, 8:00 PM)30.42 "Hg (Apr 21, 8:00 PM)
Low45 °F (Apr 22, 5:01 AM)23% (Apr 17, 4:00 PM)29.98 "Hg (Apr 29, 3:00 PM)
Average67 °F62%30.25 "Hg
* Reported Apr 15 4:00 AM — Apr 30 4:00 AM, Rustenburg, Weather by CustomWeather, © 2016

Note: Actual official high and low records may vary slightly from our data, if they occured in-between our weather recording intervals... More about our weather records

Advertising

Rustenburg Weather History for the Previous 24 Hours

Scroll right to see more
 ConditionsComfort  
Time TempWeatherWind HumidityBarometerVisibility
4:00 AM
Sat, Apr 30
55 °FCool.5 mph77%29.98 "HgN/A
3:00 AM59 °FCool.5 mph63%30.01 "HgN/A
2:00 AM59 °FCool.6 mph63%30.01 "HgN/A
1:00 AM59 °FCool.3 mph63%30.01 "HgN/A
12:00 AM61 °FRefreshingly cool.3 mph59%30.04 "HgN/A
11:00 PM
Fri, Apr 29
63 °FMild.10 mph52%30.04 "HgN/A
10:00 PM63 °FClear.9 mph52%30.04 "Hg10 mi
9:00 PM64 °FClear.8 mph49%30.04 "Hg10 mi
8:00 PM66 °FClear.7 mph46%30.04 "Hg10 mi
7:00 PM70 °FClear.8 mph40%30.01 "Hg10 mi
6:00 PM75 °FClear.9 mph31%30.01 "Hg10 mi
5:00 PM77 °FPassing clouds.12 mph30%30.01 "HgN/A
4:00 PM79 °FScattered clouds.8 mph28%29.98 "HgN/A
3:00 PM79 °FScattered clouds.15 mph28%29.98 "HgN/A
2:00 PM81 °FScattered clouds.7 mph23%30.01 "HgN/A
1:00 PM81 °FPassing clouds.9 mph24%30.04 "HgN/A
12:00 PM79 °FPassing clouds.12 mph24%30.07 "HgN/A
11:00 AM75 °FPassing clouds.7 mph36%30.09 "HgN/A
10:00 AM68 °FPassing clouds.3 mph46%30.12 "HgN/A
9:00 AM63 °FPassing clouds.3 mph56%30.12 "HgN/A
8:00 AM57 °FSunny.2 mph72%30.12 "Hg10 mi
7:00 AM52 °FSunny.No wind77%30.12 "Hg10 mi
6:00 AM50 °FSunny.2 mph76%30.09 "Hg10 mi
Weather by CustomWeather, © 2016

See weather overviewHow to use our weather pages